Weather observations for the past three days for
Wilmington, New Castle County Airport
Imperial (Metric)
Date Time (edt) Wind (mph) Vis. (mi.) Weather Sky Cond. Temperature (ºF) Relative Humidity Wind Chill (°F) Heat Index (°F) Pressure Precipitation (in)
Air Dwpt 6 hour altimeter (in) sea level (mb) 1 hr 3 hr 6 hr
Max. Min.
14 05:51 S 6 10.00 Fair CLR 70 66 87% 29.9 1012.3
14 04:51 S 8 10.00 A Few Clouds FEW120 72 64.9 79% 29.91 1012.5
14 03:51 S 6 10.00 Overcast OVC110 72 64.9 79% 29.91 1012.7
14 02:51 S 8 10.00 Overcast OVC120 73 63 71% 29.92 1013.1
14 01:51 S 7 10.00 A Few Clouds FEW065 71.1 64 77 71.1 79% 29.94 1013.6
14 00:51 S 5 10.00 Mostly Cloudy BKN100 73 64 74% 29.96 1014.4
13 23:51 SE 5 10.00 A Few Clouds FEW055 73 66.9 81% 29.96 1014.5
13 22:51 S 5 10.00 Fair CLR 73 68 84% 29.97 1014.8
13 21:51 S 5 10.00 Fair CLR 73 66 79% 29.97 1014.8
13 20:51 SE 8 10.00 Fair CLR 75 64.9 71% 77 29.96 1014.4
13 19:51 SE 10 10.00 Fair CLR 77 64.9 84 77 66% 79 29.97 1014.7
13 18:51 SE 12 10.00 Fair CLR 80.1 66 62% 82 29.96 1014.5
13 17:51 S 14 10.00 Fair CLR 81 64.9 58% 83 29.96 1014.4
13 16:51 S 15 10.00 Fair CLR 82 64.9 56% 84 29.97 1014.8
13 15:51 S 16 10.00 Fair CLR 82 66 58% 84 29.98 1015.2
13 14:51 S 15 10.00 Fair CLR 84 64.9 53% 86 29.99 1015.7
13 13:51 SE 12 10.00 A Few Clouds FEW055 81 63 82.9 69.1 54% 82 30.01 1016.0
13 12:51 S 12 10.00 Fair CLR 82.9 64.9 55% 85 30.01 1016.3
13 11:51 S 8 10.00 Mostly Cloudy FEW034 BKN070 BKN085 82 66.9 60% 85 30.03 1017.0
13 10:51 SW 8 10.00 Partly Cloudy SCT030 78.1 64.9 64% 80 30.04 1017.3
13 09:51 S 7 10.00 Fair CLR 77 66.9 71% 79 30.04 1017.2
13 08:51 S 7 10.00 Fair CLR 73 64.9 76% 30.05 1017.6
13 07:51 S 5 10.00 Fair CLR 69.1 64 69.1 59 84% 30.05 1017.4
13 06:51 Calm 10.00 Fair CLR 64 60.1 87% 30.05 1017.5
13 05:51 Calm 10.00 Fair CLR 60.1 57 90% 30.03 1016.9
13 04:51 Calm 10.00 Fair CLR 61 57 87% 30.02 1016.4
13 03:51 Calm 10.00 Fair CLR 61 57.9 90% 30.02 1016.4
13 02:51 Calm 10.00 Fair CLR 62.1 57.9 86% 30.01 1016.3
13 01:51 Calm 10.00 Fair CLR 63 57.9 75 62.1 84% 30.01 1016.3
13 00:51 Calm 10.00 Fair CLR 66 57.9 75% 30.02 1016.7
12 23:51 S 3 10.00 Fair CLR 68 60.1 76% 30.03 1016.7
12 22:51 S 6 10.00 Fair CLR 66.9 60.1 79% 30.03 1016.8
12 21:51 S 8 10.00 Fair CLR 70 60.1 71% 30.03 1016.7
12 20:51 SW 5 10.00 Fair CLR 73 53.1 50% 30.01 1016.1
12 19:51 SW 6 10.00 Fair CLR 75 52 80.1 75 45% 78 30 1016.0
12 18:51 W 8 10.00 Partly Cloudy SCT070 78.1 52 40% 79 30 1015.8
12 17:51 W 9 10.00 Mostly Cloudy BKN065 78.1 52 40% 79 30 1015.7
12 16:51 SW 6 10.00 A Few Clouds FEW060 77 52 42% 78 30.01 1016.0
12 15:51 W 6 10.00 A Few Clouds FEW070 78.1 50 37% 79 30.01 1016.2
12 14:51 N 7 10.00 Partly Cloudy SCT060 79 50 36% 79 30.02 1016.5
12 13:51 W 7 G 20 10.00 Mostly Cloudy BKN060 75.9 51.1 79 64 42% 78 30.04 1017.2
12 12:51 W 7 10.00 A Few Clouds FEW055 75 51.1 43% 78 30.05 1017.5
12 11:51 W 6 10.00 Fair CLR 75 52 45% 78 30.06 1017.8
12 10:51 W 9 10.00 Fair CLR 73.9 52 46% 30.06 1017.8
12 09:51 Vrbl 5 10.00 Fair CLR 72 55.9 57% 30.07 1018.3
12 08:51 Calm 10.00 Fair CLR 68 55.9 65% 30.07 1018.2
12 07:51 NW 3 10.00 Fair CLR 63 55.9 64 55 78% 30.07 1018.0
12 06:51 NW 5 10.00 Fair CLR 60.1 55.9 86% 30.06 1017.9
12 05:51 NW 5 10.00 Fair CLR 55 52 90% 30.05 1017.5
12 04:51 NW 3 10.00 Fair CLR 57.9 54 87% 30.04 1017.1
12 03:51 NW 3 10.00 Mostly Cloudy BKN060 59 54 83% 30.02 1016.5
12 02:51 W 3 10.00 Fair CLR 57.9 54 87% 30.02 1016.5
12 01:51 NW 5 8.00 Fair CLR 57 54 68 57 90% 30.02 1016.4
12 00:51 NW 7 10.00 Fair CLR 57.9 54 87% 30.01 1016.3
11 23:51 NW 5 10.00 Fair CLR 60.1 55.9 86% 30.02 1016.4
11 22:51 W 5 10.00 Fair CLR 63 55 76% 30.01 1016.1
11 21:51 W 6 10.00 Fair CLR 64.9 55 70% 30 1015.7
11 20:51 NW 5 10.00 A Few Clouds FEW085 64 55 73% 29.97 1014.9
11 19:51 NW 5 10.00 Mostly Cloudy BKN090 68 55.9 72 68 65% 29.96 1014.4
11 18:51 N 6 10.00 Overcast FEW070 OVC090 70 55 59% 29.96 1014.4
11 17:51 NW 6 10.00 Overcast OVC065 70 55 59% 29.95 1014.2
11 16:51 N 6 10.00 Overcast OVC055 70 55 59% 29.95 1014.0
11 15:51 NW 5 10.00 Overcast OVC085 71.1 53.1 53% 29.94 1013.8
11 14:51 NW 5 10.00 Overcast OVC065 69.1 54 59% 29.95 1014.0
11 13:51 Calm 10.00 Overcast OVC070 70 51.1 72 64.9 51% 29.94 1013.9
11 12:51 Calm 10.00 Overcast OVC050 70 52 53% 29.94 1013.9
11 11:51 NE 7 10.00 Overcast FEW080 OVC090 71.1 52 51% 29.94 1013.8
11 10:51 Vrbl 7 10.00 Overcast FEW050 FEW065 OVC095 70 53.1 55% 29.94 1013.8
11 09:51 E 7 10.00 Overcast FEW065 OVC100 68 53.1 59% 29.94 1013.8
11 08:51 NE 7 10.00 Overcast OVC100 66 52 61% 29.94 1013.9
11 07:51 NE 10 10.00 Partly Cloudy SCT100 64.9 52 66 59 63% 29.92 1013.1
11 06:51 NE 8 10.00 Fair CLR 63 52 68% 29.9 1012.4
Date Time (edt) Wind (mph) Vis. (mi.) Weather Sky Cond. Air Dwpt Max. Min. Relative Humidity Wind Chill (°F) Heat Index (°F) altimeter (in) sea level (mb) 1 hr 3 hr 6 hr
6 hour
Temperature (ºF) Pressure Precipitation (in)